QPF
0.01 0.00 0.00 0.00 0.00 0.00 0.00 0.01 0.00 0.00 0.01 0.01 0.02 0.08 0.16 0.18 0.16 0.09 0.04 0.02 0.03 0.03 0.05 0.05 0.05 0.08 0.06 0.04 0.04 0.05 0.05 0.05 0.04 0.04 0.05 0.05 0.04 0.03 0.02 0.02 0.03 0.04 0.04 0.04
0.00 0.00 0.00 0.00 0.00 0.00 0.00 0.00 0.00 0.01 0.02 0.04 0.03 0.06 0.17 0.22 0.14 0.07 0.04 0.03 0.03 0.04 0.05 0.05 0.05 0.06 0.06 0.05 0.04 0.05 0.06 0.06 0.04 0.04 0.04 0.06 0.07 0.04 0.03 0.03 0.03 0.03 0.03 0.04
0.00 0.00 0.00 0.00 0.00 0.00 0.01 0.00 0.00 0.01 0.02 0.03 0.04 0.05 0.11 0.14 0.12 0.06 0.03 0.02 0.02 0.03 0.04 0.05 0.06 0.06 0.06 0.05 0.06 0.06 0.06 0.05 0.04 0.04 0.03 0.05 0.08 0.07 0.04 0.03 0.03 0.03 0.04 0.03
0.00 0.00 0.00 0.00 0.00 0.00 0.01 0.00 0.00 0.01 0.01 0.01 0.02 0.02 0.03 0.08 0.09 0.03 0.01 0.01 0.01 0.02 0.03 0.04 0.05 0.06 0.06 0.03 0.03 0.04 0.04 0.04 0.03 0.03 0.04 0.06 0.07 0.07 0.05 0.04 0.03 0.04 0.04 0.02
0.00 0.00 0.00 0.00 0.00 0.00 0.01 0.00 0.00 0.00 0.01 0.01 0.01 0.01 0.01 0.03 0.04 0.02 0.01 0.01 0.01 0.02 0.03 0.03 0.04 0.04 0.02 0.01 0.02 0.03 0.03 0.03 0.02 0.02 0.04 0.05 0.05 0.05 0.04 0.02 0.03 0.05 0.03 0.02
0.00 0.00 0.00 0.00 0.00 0.00 0.01 0.01 0.01 0.01 0.00 0.01 0.00 0.01 0.03 0.02 0.02 0.01 0.01 0.00 0.01 0.03 0.03 0.03 0.02 0.01 0.01 0.01 0.02 0.03 0.03 0.03 0.02 0.02 0.02 0.02 0.04 0.03 0.02 0.03 0.04 0.04 0.02 0.02
0.01 0.00 0.00 0.00 0.00 0.00 0.01 0.01 0.01 0.01 0.01 0.01 0.01 0.03 0.05 0.04 0.02 0.02 0.02 0.01 0.01 0.02 0.03 0.03 0.01 0.01 0.01 0.02 0.02 0.03 0.02 0.02 0.03 0.03 0.03 0.03 0.04 0.03 0.03 0.03 0.03 0.03 0.02 0.02
0.01 0.01 0.00 0.00 0.00 0.01 0.00 0.00 0.01 0.01 0.01 0.01 0.03 0.04 0.03 0.03 0.05 0.03 0.02 0.01 0.01 0.01 0.01 0.02 0.02 0.02 0.02 0.03 0.03 0.04 0.03 0.03 0.05 0.07 0.07 0.06 0.05 0.04 0.04 0.03 0.03 0.03 0.02 0.01
0.00 0.01 0.00 0.00 0.00 0.00 0.00 0.00 0.00 0.01 0.01 0.01 0.02 0.02 0.01 0.02 0.02 0.02 0.02 0.01 0.01 0.01 0.01 0.02 0.02 0.02 0.02 0.04 0.06 0.07 0.08 0.10 0.11 0.10 0.08 0.06 0.05 0.05 0.05 0.03 0.02 0.02 0.02 0.01
0.00 0.01 0.00 0.00 0.00 0.00 0.00 0.00 0.00 0.01 0.01 0.01 0.01 0.01 0.01 0.01 0.02 0.02 0.01 0.01 0.01 0.01 0.01 0.01 0.02 0.03 0.03 0.06 0.09 0.11 0.12 0.12 0.10 0.07 0.06 0.04 0.04 0.04 0.04 0.02 0.02 0.02 0.02 0.02
0.00 0.01 0.00 0.00 0.00 0.00 0.00 0.01 0.00 0.00 0.00 0.01 0.01 0.02 0.02 0.03 0.03 0.03 0.02 0.02 0.01 0.01 0.01 0.01 0.01 0.02 0.03 0.05 0.06 0.04 0.04 0.04 0.04 0.03 0.04 0.03 0.02 0.03 0.02 0.02 0.02 0.02 0.02 0.02
0.00 0.01 0.00 0.00 0.00 0.00 0.00 0.00 0.00 0.01 0.01 0.01 0.01 0.03 0.03 0.03 0.02 0.02 0.02 0.02 0.01 0.01 0.01 0.01 0.01 0.02 0.02 0.03 0.03 0.02 0.01 0.02 0.01 0.01 0.02 0.02 0.02 0.02 0.02 0.02 0.02 0.02 0.02 0.02
0.00 0.01 0.01 0.01 0.01 0.00 0.00 0.00 0.00 0.00 0.01 0.01 0.02 0.03 0.02 0.02 0.01 0.01 0.02 0.01 0.01 0.02 0.01 0.01 0.02 0.03 0.02 0.02 0.02 0.01 0.01 0.01 0.01 0.01 0.01 0.01 0.01 0.02 0.02 0.02 0.02 0.02 0.02 0.02
0.00 0.00 0.01 0.01 0.01 0.00 0.00 0.00 0.00 0.01 0.02 0.02 0.02 0.02 0.01 0.01 0.02 0.02 0.02 0.01 0.01 0.02 0.02 0.02 0.03 0.02 0.01 0.01 0.01 0.01 0.01 0.01 0.01 0.02 0.03 0.02 0.03 0.03 0.03 0.03 0.03 0.02 0.02 0.03
0.00 0.00 0.01 0.01 0.00 0.00 0.00 0.00 0.01 0.01 0.01 0.01 0.01 0.01 0.00 0.01 0.01 0.03 0.03 0.02 0.01 0.01 0.02 0.03 0.03 0.02 0.01 0.01 0.01 0.01 0.01 0.01 0.01 0.03 0.07 0.05 0.04 0.04 0.04 0.04 0.04 0.03 0.02 0.01
0.00 0.00 0.00 0.00 0.00 0.00 0.01 0.01 0.01 0.01 0.01 0.01 0.01 0.00 0.00 0.00 0.01 0.02 0.02 0.01 0.01 0.02 0.04 0.04 0.03 0.02 0.01 0.01 0.01 0.01 0.01 0.01 0.01 0.03 0.06 0.05 0.04 0.04 0.03 0.02 0.02 0.01 0.01 0.01
0.00 0.00 0.00 0.00 0.01 0.00 0.01 0.01 0.01 0.01 0.01 0.02 0.03 0.01 0.00 0.00 0.01 0.01 0.02 0.01 0.02 0.03 0.04 0.03 0.02 0.02 0.01 0.01 0.01 0.01 0.01 0.01 0.01 0.01 0.03 0.03 0.03 0.02 0.01 0.01 0.00 0.01 0.01 0.01
0.00 0.00 0.01 0.01 0.01 0.01 0.01 0.00 0.01 0.01 0.02 0.02 0.02 0.01 0.01 0.01 0.00 0.01 0.01 0.01 0.03 0.04 0.04 0.03 0.02 0.02 0.01 0.01 0.01 0.01 0.02 0.02 0.02 0.01 0.01 0.02 0.02 0.01 0.01 0.00 0.00 0.01 0.01 0.01
0.00 0.00 0.01 0.00 0.01 0.00 0.00 0.00 0.00 0.01 0.01 0.01 0.02 0.01 0.01 0.01 0.01 0.03 0.02 0.02 0.02 0.03 0.04 0.03 0.02 0.02 0.02 0.01 0.02 0.02 0.01 0.01 0.01 0.01 0.01 0.01 0.01 0.01 0.01 0.00 0.00 0.01 0.01 0.01
0.00 0.00 0.01 0.01 0.01 0.00 0.00 0.00 0.00 0.01 0.01 0.00 0.01 0.01 0.01 0.02 0.02 0.04 0.02 0.01 0.02 0.02 0.03 0.02 0.01 0.01 0.03 0.02 0.01 0.01 0.01 0.01 0.01 0.01 0.01 0.01 0.01 0.01 0.01 0.01 0.01 0.01 0.02 0.02
0.00 0.00 0.00 0.00 0.00 0.00 0.00 0.00 0.00 0.01 0.01 0.00 0.00 0.00 0.01 0.01 0.02 0.02 0.02 0.02 0.02 0.01 0.01 0.00 0.00 0.01 0.01 0.02 0.01 0.01 0.00 0.01 0.01 0.01 0.01 0.01 0.01 0.01 0.00 0.01 0.01 0.01 0.02 0.02
0.00 0.00 0.00 0.01 0.01 0.01 0.00 0.00 0.00 0.01 0.00 0.01 0.01 0.00 0.00 0.01 0.01 0.01 0.01 0.01 0.01 0.01 0.01 0.01 0.01 0.01 0.01 0.01 0.01 0.01 0.01 0.01 0.01 0.01 0.01 0.01 0.01 0.01 0.01 0.01 0.01 0.02 0.02 0.02
0.01 0.01 0.01 0.01 0.01 0.00 0.00 0.00 0.00 0.00 0.00 0.00 0.01 0.00 0.00 0.00 0.00 0.00 0.01 0.00 0.01 0.01 0.01 0.01 0.00 0.00 0.01 0.01 0.01 0.02 0.02 0.01 0.00 0.01 0.01 0.01 0.01 0.01 0.01 0.01 0.02 0.02 0.02 0.01
0.01 0.01 0.01 0.00 0.00 0.00 0.00 0.00 0.00 0.00 0.01 0.00 0.00 0.00 0.00 0.00 0.00 0.00 0.00 0.00 0.00 0.01 0.01 0.00 0.00 0.00 0.01 0.01 0.01 0.01 0.01 0.00 0.00 0.01 0.01 0.01 0.01 0.02 0.02 0.02 0.02 0.02 0.01 0.01
0.02 0.01 0.01 0.01 0.00 0.00 0.00 0.00 0.01 0.01 0.01 0.00 0.00 0.00 0.00 0.00 0.00 0.00 0.00 0.00 0.01 0.01 0.00 0.00 0.00 0.01 0.01 0.01 0.01 0.00 0.00 0.00 0.01 0.01 0.01 0.01 0.01 0.02 0.03 0.03 0.02 0.01 0.01 0.01
0.01 0.01 0.02 0.02 0.01 0.01 0.01 0.01 0.01 0.01 0.01 0.01 0.01 0.01 0.00 0.00 0.00 0.00 0.00 0.00 0.00 0.00 0.01 0.01 0.01 0.01 0.01 0.01 0.01 0.00 0.00 0.00 0.01 0.01 0.01 0.01 0.02 0.02 0.03 0.02 0.01 0.01 0.00 0.00
MSLP
1010.70 1010.76 1010.74 1010.72 1010.75 1010.90 1011.25 1011.81 1012.57 1013.48 1014.46 1015.39 1016.18 1016.76 1017.07 1017.11 1016.93 1016.59 1016.17 1015.74 1015.35 1015.01 1014.72 1014.43 1014.12 1013.73 1013.25 1012.70 1012.11 1011.54 1011.06 1010.71 1010.53 1010.52 1010.66 1010.89 1011.16 1011.39 1011.55 1011.60 1011.56 1011.46 1011.34 1011.24
1010.96 1010.94 1010.83 1010.71 1010.65 1010.73 1011.03 1011.59 1012.39 1013.38 1014.44 1015.48 1016.38 1017.04 1017.41 1017.48 1017.29 1016.91 1016.44 1015.95 1015.51 1015.14 1014.83 1014.57 1014.28 1013.94 1013.53 1013.03 1012.48 1011.94 1011.46 1011.09 1010.88 1010.83 1010.92 1011.10 1011.32 1011.50 1011.61 1011.62 1011.54 1011.40 1011.24 1011.10
1011.22 1011.14 1010.96 1010.76 1010.63 1010.66 1010.94 1011.50 1012.36 1013.42 1014.60 1015.77 1016.79 1017.56 1018.00 1018.10 1017.91 1017.49 1016.94 1016.36 1015.83 1015.38 1015.02 1014.73 1014.46 1014.15 1013.78 1013.34 1012.84 1012.33 1011.86 1011.48 1011.23 1011.13 1011.15 1011.27 1011.41 1011.54 1011.60 1011.58 1011.47 1011.30 1011.11 1010.95
1011.49 1011.37 1011.14 1010.90 1010.72 1010.73 1011.01 1011.61 1012.53 1013.70 1015.01 1016.32 1017.47 1018.36 1018.89 1019.03 1018.82 1018.34 1017.70 1016.99 1016.32 1015.74 1015.28 1014.92 1014.61 1014.31 1013.97 1013.57 1013.12 1012.64 1012.19 1011.80 1011.52 1011.35 1011.31 1011.35 1011.42 1011.49 1011.51 1011.46 1011.34 1011.17 1010.98 1010.81
1011.79 1011.65 1011.40 1011.13 1010.94 1010.95 1011.26 1011.91 1012.92 1014.20 1015.64 1017.09 1018.39 1019.40 1020.02 1020.19 1019.97 1019.41 1018.65 1017.79 1016.95 1016.20 1015.59 1015.11 1014.73 1014.40 1014.06 1013.69 1013.28 1012.83 1012.39 1011.99 1011.68 1011.46 1011.35 1011.31 1011.32 1011.34 1011.34 1011.28 1011.16 1011.01 1010.85 1010.69
1012.14 1011.99 1011.73 1011.45 1011.27 1011.29 1011.63 1012.35 1013.44 1014.83 1016.40 1017.99 1019.42 1020.54 1021.23 1021.44 1021.20 1020.57 1019.68 1018.66 1017.63 1016.70 1015.92 1015.30 1014.81 1014.42 1014.06 1013.70 1013.31 1012.89 1012.46 1012.06 1011.71 1011.44 1011.26 1011.16 1011.12 1011.10 1011.08 1011.03 1010.95 1010.84 1010.72 1010.61
1012.56 1012.39 1012.13 1011.85 1011.67 1011.71 1012.09 1012.85 1014.01 1015.49 1017.16 1018.85 1020.38 1021.59 1022.36 1022.59 1022.33 1021.64 1020.64 1019.48 1018.29 1017.18 1016.23 1015.47 1014.88 1014.42 1014.03 1013.66 1013.27 1012.86 1012.43 1012.01 1011.62 1011.31 1011.07 1010.91 1010.82 1010.78 1010.75 1010.73 1010.70 1010.65 1010.60 1010.56
1013.05 1012.87 1012.59 1012.31 1012.13 1012.18 1012.57 1013.36 1014.55 1016.07 1017.79 1019.54 1021.14 1022.40 1023.21 1023.47 1023.20 1022.48 1021.41 1020.15 1018.85 1017.61 1016.54 1015.66 1014.98 1014.45 1014.02 1013.62 1013.23 1012.81 1012.36 1011.91 1011.48 1011.10 1010.81 1010.59 1010.46 1010.40 1010.39 1010.40 1010.43 1010.46 1010.49 1010.52
1013.62 1013.42 1013.13 1012.83 1012.64 1012.69 1013.06 1013.84 1015.02 1016.53 1018.24 1019.98 1021.58 1022.86 1023.68 1023.96 1023.70 1022.98 1021.90 1020.61 1019.26 1017.97 1016.83 1015.90 1015.15 1014.57 1014.10 1013.68 1013.25 1012.80 1012.32 1011.82 1011.33 1010.89 1010.53 1010.26 1010.09 1010.02 1010.02 1010.08 1010.17 1010.28 1010.40 1010.51
1014.25 1014.03 1013.73 1013.43 1013.23 1013.26 1013.60 1014.34 1015.45 1016.89 1018.52 1020.19 1021.73 1022.96 1023.76 1024.04 1023.82 1023.13 1022.10 1020.85 1019.53 1018.26 1017.14 1016.19 1015.44 1014.83 1014.33 1013.87 1013.41 1012.91 1012.37 1011.80 1011.24 1010.73 1010.29 1009.97 1009.76 1009.67 1009.69 1009.79 1009.95 1010.14 1010.34 1010.53
1014.89 1014.69 1014.41 1014.12 1013.93 1013.94 1014.24 1014.90 1015.91 1017.22 1018.71 1020.25 1021.65 1022.79 1023.53 1023.80 1023.60 1022.98 1022.05 1020.91 1019.69 1018.52 1017.47 1016.58 1015.85 1015.25 1014.73 1014.23 1013.71 1013.15 1012.53 1011.88 1011.23 1010.64 1010.13 1009.74 1009.50 1009.40 1009.43 1009.57 1009.78 1010.04 1010.32 1010.58
1015.50 1015.36 1015.13 1014.89 1014.74 1014.75 1015.02 1015.61 1016.50 1017.64 1018.95 1020.28 1021.51 1022.50 1023.14 1023.38 1023.20 1022.66 1021.84 1020.85 1019.80 1018.77 1017.84 1017.05 1016.38 1015.80 1015.26 1014.72 1014.14 1013.50 1012.79 1012.05 1011.32 1010.64 1010.06 1009.62 1009.34 1009.22 1009.26 1009.43 1009.69 1010.00 1010.34 1010.66
1016.05 1016.00 1015.88 1015.73 1015.65 1015.70 1015.97 1016.48 1017.25 1018.22 1019.31 1020.41 1021.42 1022.23 1022.74 1022.92 1022.75 1022.29 1021.60 1020.77 1019.90 1019.04 1018.26 1017.58 1016.97 1016.42 1015.88 1015.29 1014.65 1013.92 1013.13 1012.30 1011.48 1010.72 1010.08 1009.59 1009.28 1009.15 1009.19 1009.37 1009.66 1010.01 1010.38 1010.73
1016.50 1016.58 1016.59 1016.58 1016.61 1016.75 1017.04 1017.51 1018.16 1018.96 1019.83 1020.71 1021.48 1022.09 1022.45 1022.55 1022.38 1021.97 1021.41 1020.73 1020.03 1019.34 1018.70 1018.13 1017.59 1017.06 1016.49 1015.87 1015.16 1014.36 1013.48 1012.58 1011.69 1010.87 1010.18 1009.65 1009.30 1009.16 1009.19 1009.38 1009.67 1010.04 1010.42 1010.78
1016.85 1017.07 1017.24 1017.39 1017.57 1017.81 1018.15 1018.60 1019.17 1019.82 1020.50 1021.15 1021.70 1022.11 1022.33 1022.33 1022.14 1021.78 1021.31 1020.77 1020.21 1019.66 1019.15 1018.65 1018.16 1017.64 1017.05 1016.38 1015.61 1014.74 1013.81 1012.85 1011.91 1011.05 1010.33 1009.77 1009.41 1009.23 1009.25 1009.41 1009.69 1010.04 1010.41 1010.76
1017.10 1017.46 1017.78 1018.10 1018.42 1018.78 1019.18 1019.65 1020.16 1020.69 1021.21 1021.67 1022.03 1022.27 1022.35 1022.27 1022.06 1021.74 1021.34 1020.90 1020.45 1020.00 1019.56 1019.12 1018.64 1018.11 1017.49 1016.78 1015.96 1015.05 1014.07 1013.09 1012.13 1011.26 1010.52 1009.94 1009.55 1009.35 1009.33 1009.45 1009.68 1009.98 1010.31 1010.63
1017.29 1017.75 1018.20 1018.64 1019.09 1019.55 1020.03 1020.51 1020.99 1021.44 1021.84 1022.16 1022.38 1022.49 1022.47 1022.34 1022.11 1021.81 1021.46 1021.09 1020.71 1020.32 1019.92 1019.49 1019.01 1018.45 1017.80 1017.04 1016.19 1015.26 1014.27 1013.29 1012.34 1011.47 1010.73 1010.14 1009.73 1009.48 1009.40 1009.45 1009.61 1009.84 1010.11 1010.37
1017.43 1017.95 1018.47 1019.00 1019.53 1020.07 1020.59 1021.09 1021.56 1021.96 1022.29 1022.52 1022.66 1022.69 1022.62 1022.46 1022.24 1021.97 1021.66 1021.33 1020.98 1020.61 1020.22 1019.77 1019.25 1018.66 1017.96 1017.18 1016.31 1015.38 1014.42 1013.46 1012.54 1011.70 1010.97 1010.37 1009.91 1009.61 1009.45 1009.41 1009.48 1009.62 1009.80 1009.99
1017.55 1018.07 1018.61 1019.17 1019.74 1020.30 1020.85 1021.35 1021.81 1022.19 1022.48 1022.68 1022.79 1022.80 1022.73 1022.59 1022.39 1022.15 1021.87 1021.57 1021.23 1020.86 1020.43 1019.94 1019.38 1018.74 1018.02 1017.22 1016.35 1015.44 1014.52 1013.60 1012.73 1011.92 1011.20 1010.59 1010.10 1009.73 1009.48 1009.33 1009.29 1009.32 1009.41 1009.53
1017.65 1018.12 1018.63 1019.17 1019.72 1020.28 1020.82 1021.32 1021.77 1022.14 1022.43 1022.64 1022.76 1022.80 1022.77 1022.68 1022.53 1022.33 1022.08 1021.79 1021.44 1021.04 1020.58 1020.03 1019.42 1018.73 1017.98 1017.18 1016.33 1015.46 1014.59 1013.73 1012.91 1012.14 1011.44 1010.81 1010.27 1009.82 1009.47 1009.22 1009.07 1009.00 1009.00 1009.05
1017.69 1018.09 1018.54 1019.03 1019.54 1020.06 1020.58 1021.07 1021.51 1021.89 1022.21 1022.45 1022.62 1022.72 1022.76 1022.73 1022.63 1022.47 1022.26 1021.97 1021.60 1021.16 1020.64 1020.05 1019.38 1018.66 1017.89 1017.09 1016.28 1015.46 1014.65 1013.85 1013.09 1012.35 1011.66 1011.01 1010.42 1009.89 1009.45 1009.10 1008.84 1008.68 1008.61 1008.61
1017.65 1017.98 1018.37 1018.79 1019.25 1019.73 1020.22 1020.69 1021.14 1021.54 1021.89 1022.19 1022.42 1022.60 1022.70 1022.74 1022.70 1022.58 1022.38 1022.09 1021.70 1021.22 1020.65 1020.00 1019.29 1018.54 1017.77 1016.99 1016.21 1015.44 1014.69 1013.96 1013.23 1012.53 1011.83 1011.16 1010.52 1009.93 1009.40 1008.96 1008.62 1008.39 1008.27 1008.25
1017.50 1017.78 1018.12 1018.50 1018.92 1019.37 1019.83 1020.30 1020.76 1021.18 1021.58 1021.93 1022.23 1022.47 1022.64 1022.73 1022.74 1022.65 1022.45 1022.14 1021.72 1021.20 1020.59 1019.90 1019.16 1018.40 1017.63 1016.87 1016.13 1015.41 1014.72 1014.03 1013.34 1012.65 1011.95 1011.25 1010.57 1009.91 1009.32 1008.82 1008.43 1008.16 1008.02 1007.99
1017.23 1017.49 1017.80 1018.16 1018.57 1019.01 1019.48 1019.96 1020.43 1020.90 1021.33 1021.73 1022.08 1022.37 1022.59 1022.72 1022.74 1022.66 1022.45 1022.13 1021.68 1021.12 1020.48 1019.76 1019.02 1018.25 1017.50 1016.77 1016.06 1015.39 1014.73 1014.07 1013.40 1012.71 1012.00 1011.27 1010.54 1009.85 1009.21 1008.67 1008.25 1007.97 1007.83 1007.81
1016.85 1017.11 1017.43 1017.80 1018.22 1018.69 1019.18 1019.69 1020.20 1020.69 1021.17 1021.60 1021.98 1022.30 1022.54 1022.68 1022.70 1022.61 1022.38 1022.03 1021.56 1020.99 1020.33 1019.61 1018.87 1018.12 1017.40 1016.70 1016.02 1015.38 1014.74 1014.09 1013.42 1012.71 1011.97 1011.21 1010.45 1009.73 1009.07 1008.51 1008.09 1007.81 1007.69 1007.70
1016.39 1016.67 1017.02 1017.43 1017.89 1018.39 1018.93 1019.48 1020.03 1020.56 1021.06 1021.51 1021.91 1022.23 1022.46 1022.58 1022.59 1022.48 1022.24 1021.87 1021.39 1020.82 1020.17 1019.47 1018.75 1018.04 1017.34 1016.68 1016.03 1015.40 1014.76 1014.10 1013.41 1012.67 1011.90 1011.10 1010.31 1009.55 1008.88 1008.33 1007.92 1007.67 1007.58 1007.62
Thickness
5763 5757 5756 5762 5765 5764 5760 5755 5751 5755 5761 5754 5750 5749 5750 5749 5748 5745 5743 5741 5739 5738 5739 5737 5735 5733 5729 5725 5722 5719 5715 5712 5709 5707 5705 5704 5704 5703 5702 5701 5697 5695 5695 5694
5755 5756 5767 5769 5767 5762 5758 5752 5752 5755 5757 5751 5747 5746 5748 5748 5743 5742 5739 5737 5736 5736 5735 5732 5730 5727 5723 5720 5718 5715 5712 5709 5706 5704 5702 5701 5700 5699 5698 5696 5693 5691 5690 5689
5754 5764 5771 5764 5761 5754 5755 5753 5752 5750 5752 5753 5745 5742 5744 5745 5742 5739 5738 5737 5736 5733 5731 5728 5725 5723 5720 5717 5714 5712 5708 5705 5702 5700 5700 5698 5695 5695 5694 5691 5689 5687 5685 5683
5761 5769 5765 5761 5760 5757 5752 5762 5756 5752 5747 5746 5746 5733 5740 5740 5736 5735 5733 5733 5733 5733 5730 5726 5722 5719 5716 5714 5712 5708 5705 5701 5698 5696 5695 5693 5691 5689 5688 5687 5685 5683 5681 5679
5760 5765 5761 5758 5761 5760 5758 5764 5759 5755 5750 5745 5746 5736 5738 5739 5732 5733 5732 5731 5730 5730 5728 5724 5721 5718 5716 5713 5710 5705 5701 5697 5695 5692 5690 5688 5687 5686 5686 5683 5680 5678 5677 5675
5766 5772 5768 5765 5768 5765 5764 5760 5758 5756 5753 5733 5740 5733 5731 5736 5733 5733 5733 5730 5728 5727 5725 5722 5720 5717 5714 5712 5708 5703 5698 5694 5692 5689 5687 5684 5682 5680 5679 5677 5675 5675 5674 5672
5757 5764 5769 5770 5760 5761 5760 5750 5739 5737 5735 5734 5742 5732 5731 5737 5738 5734 5730 5728 5727 5725 5722 5718 5715 5713 5711 5708 5705 5701 5696 5692 5689 5687 5684 5681 5679 5676 5674 5673 5671 5670 5669 5668
5749 5749 5762 5766 5760 5754 5756 5751 5734 5724 5728 5737 5737 5729 5735 5739 5737 5735 5732 5729 5725 5721 5719 5716 5713 5710 5707 5704 5700 5697 5693 5689 5687 5684 5681 5678 5676 5676 5674 5670 5668 5666 5665 5663
5751 5748 5764 5766 5767 5762 5753 5753 5759 5745 5740 5730 5735 5735 5735 5736 5732 5730 5727 5724 5722 5719 5716 5713 5710 5707 5704 5700 5695 5692 5689 5686 5683 5681 5677 5675 5673 5671 5669 5666 5664 5663 5661 5659
5758 5744 5757 5762 5764 5760 5761 5757 5748 5739 5721 5719 5729 5729 5730 5726 5726 5726 5723 5721 5720 5717 5714 5711 5708 5703 5700 5696 5692 5688 5685 5682 5680 5678 5674 5672 5670 5667 5665 5663 5661 5659 5657 5654
5759 5743 5747 5752 5748 5749 5748 5746 5743 5743 5737 5721 5715 5724 5737 5731 5728 5725 5723 5721 5718 5714 5711 5707 5704 5700 5696 5693 5690 5685 5682 5680 5677 5675 5671 5668 5666 5664 5662 5660 5658 5655 5653 5650
5753 5747 5740 5746 5755 5757 5752 5747 5741 5726 5724 5728 5721 5721 5737 5734 5732 5727 5723 5720 5717 5712 5709 5705 5700 5696 5692 5689 5686 5683 5680 5677 5674 5671 5668 5665 5663 5661 5658 5657 5654 5651 5648 5646
5747 5737 5725 5730 5737 5743 5743 5743 5742 5738 5730 5723 5717 5720 5732 5732 5729 5725 5721 5717 5713 5708 5704 5701 5696 5692 5689 5686 5683 5679 5676 5673 5670 5668 5664 5661 5659 5656 5654 5652 5649 5647 5644 5642
5746 5736 5730 5723 5730 5738 5734 5735 5737 5733 5725 5722 5722 5723 5726 5725 5722 5720 5718 5714 5710 5704 5700 5696 5692 5689 5686 5683 5679 5676 5673 5671 5667 5664 5661 5658 5655 5652 5650 5648 5645 5643 5640 5638
5740 5731 5733 5735 5737 5736 5732 5731 5731 5728 5728 5722 5724 5723 5725 5724 5721 5718 5715 5712 5707 5702 5697 5693 5690 5686 5683 5680 5676 5674 5671 5668 5664 5661 5658 5655 5652 5650 5647 5644 5641 5638 5636 5634
5733 5726 5728 5725 5732 5730 5725 5728 5728 5726 5727 5725 5724 5721 5728 5726 5723 5716 5712 5708 5704 5700 5696 5692 5688 5684 5680 5677 5674 5671 5668 5665 5661 5658 5656 5653 5650 5647 5643 5640 5637 5634 5631 5629
5728 5721 5716 5718 5727 5722 5715 5725 5725 5724 5726 5723 5718 5721 5724 5719 5715 5712 5709 5706 5702 5699 5695 5690 5686 5682 5678 5675 5672 5668 5665 5663 5659 5655 5653 5650 5647 5644 5640 5638 5634 5631 5628 5626
5718 5716 5717 5717 5713 5698 5719 5733 5729 5723 5723 5725 5722 5721 5720 5717 5715 5713 5710 5704 5700 5697 5693 5689 5684 5680 5677 5674 5670 5667 5664 5660 5657 5653 5650 5647 5644 5641 5637 5634 5631 5628 5625 5622
5718 5712 5711 5711 5706 5708 5717 5723 5721 5715 5713 5720 5717 5716 5716 5716 5711 5708 5707 5703 5699 5695 5691 5687 5683 5679 5674 5671 5668 5664 5661 5658 5654 5652 5648 5645 5642 5638 5635 5631 5628 5625 5622 5620
5711 5709 5706 5704 5696 5695 5709 5719 5722 5715 5705 5715 5714 5710 5709 5707 5700 5701 5702 5698 5695 5691 5687 5683 5680 5676 5671 5667 5665 5661 5658 5655 5652 5649 5646 5643 5639 5636 5632 5629 5626 5623 5620 5618
5699 5698 5697 5697 5696 5705 5710 5715 5713 5696 5698 5708 5709 5706 5703 5700 5699 5699 5697 5693 5690 5686 5683 5680 5676 5672 5668 5665 5661 5658 5656 5652 5650 5647 5644 5640 5637 5634 5631 5627 5624 5622 5620 5618
5696 5695 5692 5693 5688 5692 5703 5704 5696 5695 5701 5703 5703 5701 5698 5696 5695 5693 5690 5687 5684 5681 5678 5676 5672 5669 5666 5663 5659 5655 5652 5650 5647 5644 5641 5638 5635 5633 5631 5627 5623 5621 5619 5618
5694 5694 5696 5692 5691 5693 5698 5696 5696 5697 5695 5696 5696 5696 5693 5689 5687 5686 5684 5681 5679 5676 5674 5671 5669 5666 5663 5660 5656 5653 5650 5647 5644 5641 5637 5635 5633 5631 5629 5626 5623 5621 5619 5618
5688 5687 5686 5683 5688 5689 5690 5691 5691 5691 5690 5691 5691 5690 5688 5684 5683 5681 5678 5676 5673 5672 5669 5667 5665 5662 5659 5657 5654 5651 5648 5645 5641 5638 5635 5634 5632 5630 5627 5624 5623 5621 5619 5617
5680 5678 5678 5675 5680 5680 5682 5683 5683 5683 5684 5684 5684 5684 5682 5680 5678 5676 5673 5671 5669 5667 5665 5663 5661 5658 5656 5654 5651 5649 5645 5641 5638 5635 5634 5633 5632 5630 5625 5623 5619 5618 5614 5611
5673 5670 5668 5669 5672 5671 5672 5676 5677 5675 5675 5675 5675 5675 5675 5674 5672 5670 5668 5666 5664 5662 5660 5658 5656 5655 5653 5651 5648 5646 5642 5639 5636 5634 5632 5633 5631 5629 5627 5623 5619 5612 5609 5603